This is the latest recevied weather packets stored in our database for station/object LU8FCJ-5. If no packets are shown the sender has not sent any weather packets the latest 10 day(s).
| Time | Temp. | Humidity | Pressure | Rain* | Wind** | Luminosity | Snow |
|---|---|---|---|---|---|---|---|
| 1777804875 | 5.56° C | 76% | 1021.7 hPa | 0 mm | - | - | - |
| 1777804565 | 5.56° C | 76% | 1021.7 hPa | 0 mm | - | - | - |
| 1777804255 | 5.56° C | 76% | 1021.7 hPa | 0 mm | - | - | - |
| 1777803945 | 5.56° C | 76% | 1021.6 hPa | 0 mm | - | - | - |
| 1777803637 | 6.11° C | 75% | 1021.5 hPa | 0 mm | - | - | - |
| 1777803324 | 6.11° C | 74% | 1021.5 hPa | 0 mm | - | - | - |
| 1777803015 | 6.67° C | 73% | 1021.8 hPa | 0 mm | - | - | - |
| 1777802705 | 6.67° C | 73% | 1021.7 hPa | 0 mm | - | - | - |
| 1777802394 | 6.67° C | 72% | 1021.7 hPa | 0 mm | - | - | - |
| 1777802084 | 7.22° C | 71% | 1021.6 hPa | 0 mm | - | - | - |
| 1777801773 | 7.22° C | 71% | 1021.9 hPa | 0 mm | - | - | - |
| 1777801460 | 7.22° C | 72% | 1021.9 hPa | 0 mm | - | - | - |
| 1777800843 | 7.22° C | 71% | 1021.8 hPa | 0 mm | - | - | - |
| 1777800533 | 7.22° C | 71% | 1022.1 hPa | 0 mm | - | - | - |
| 1777800223 | 6.67° C | 72% | 1022 hPa | 0 mm | - | - | - |
| 1777799917 | 7.22° C | 71% | 1022 hPa | 0 mm | - | - | - |
| 1777799603 | 6.67° C | 71% | 1021.9 hPa | 0 mm | - | - | - |
| 1777799293 | 7.22° C | 71% | 1022.1 hPa | 0 mm | - | - | - |
| 1777798982 | 6.67° C | 73% | 1022.2 hPa | 0 mm | - | - | - |
| 1777798673 | 6.67° C | 73% | 1022.1 hPa | 0 mm | - | - | - |
| 1777798363 | 6.67° C | 74% | 1022.3 hPa | 0 mm | - | - | - |
| 1777798053 | 6.67° C | 75% | 1022.3 hPa | 0 mm | - | - | - |
| 1777797742 | 6.11° C | 75% | 1022.4 hPa | 0 mm | - | - | - |
| 1777797432 | 6.11° C | 76% | 1022.3 hPa | 0 mm | - | - | - |
| 1777797122 | 5.56° C | 77% | 1022.5 hPa | 0 mm | - | - | - |
* Rain latest hour (hover to see other rain measurements)
** Current wind speed in m/s (hover to see current wind gust speed)